Address 0x331971611c4aa83dea2cd13a4de1d4dd41ddc465 7

Txn Hash Method
Block
From
To
Value [Txn Fee]
0x6edaf469e493992c13b1c016744b0582a7341c544dbe04538cb82152018287feApprove67324792022-03-01 8:08:20171 days 21 hrs ago0x331971611c4aa83dea2cd13a4de1d4dd41ddc465OUT0xfc4477c05c7f4b751131300bfc7da2eed9f0249c0 AVAX0.‍00125720127
0xe7b8f41c3acd81c326cc3f6ad0b1c5e79847587a81c6c1db980e9234bd06e74cApprove67323232022-03-01 8:03:00171 days 21 hrs ago0x331971611c4aa83dea2cd13a4de1d4dd41ddc465OUT0x05debdc3260d4d1d2886e65cf86b4dd7b8cef2fe0 AVAX0.‍00125720127
0x8d29502c3f59d923cd9b4492753c8ec3fed0739b4cbe0cf896424a3229119c56Remove Liquidity66779072022-02-28 2:25:55173 days 3 hrs ago0x331971611c4aa83dea2cd13a4de1d4dd41ddc465OUT0x40a9e69e6cc8ab7f1089039e279504e440c6bf080 AVAX0.‍00267635228
0x6cc065b936409032a50d6a23928f9d2b67ce3faf39638ea9fe5ff2ef1e901bf1Remove Liquidity66777442022-02-28 2:20:23173 days 3 hrs ago0x331971611c4aa83dea2cd13a4de1d4dd41ddc465OUT0x29bdc69116101e598999e32cd0cc63d877138eb20 AVAX0.‍00267601628
0x9f3e76d5e33bcd7d61f15b8017ae2b8e9aa49288987bd9d5cad6353173f3888cRemove Liquidity66775732022-02-28 2:14:40173 days 3 hrs ago0x331971611c4aa83dea2cd13a4de1d4dd41ddc465OUT0xe7fdd7cb1da9b67f64a90550c827d11cac2818a10 AVAX0.‍00258076827
0xfa9d94bcabb6642bc6451caae2b3c9bd3e664ce45c17133ad18f8be0422c41e7Add Liquidity66613892022-02-27 16:58:11173 days 12 hrs ago0x331971611c4aa83dea2cd13a4de1d4dd41ddc465OUT0x29bdc69116101e598999e32cd0cc63d877138eb20 AVAX0.‍00470490826
0xb5344f398250f9708a341ced31be3b25d7c46e62ab64aef36b0e239406725a5aApprove66613872022-02-27 16:58:07173 days 12 hrs ago0x331971611c4aa83dea2cd13a4de1d4dd41ddc465OUT0x6eb373b066f60649e038baeceffb31ea33f612f10 AVAX0.‍00125720127
0x50636b8c7bc4657dc599a379a0debb90d1d9a0c715b3fb73a4fc0cece694477fAdd Liquidity66599642022-02-27 16:10:07173 days 13 hrs ago0x331971611c4aa83dea2cd13a4de1d4dd41ddc465OUT0xe7fdd7cb1da9b67f64a90550c827d11cac2818a10 AVAX0.‍00488586627
0xb31b99b9a020b2730723f32e825510f548668335c83b4a54a03e6179d0516e7cApprove66599602022-02-27 16:09:59173 days 13 hrs ago0x331971611c4aa83dea2cd13a4de1d4dd41ddc465OUT0xd58340a3921fcbd4c573afa3fdc8f392eddc42ef0 AVAX0.‍00125720127
0x22a9ebaacb69ca1db20a081841ee30f595b3f21a7f5c1e6d36203933ef3f22f4Add Liquidity66585172022-02-27 15:21:26173 days 14 hrs ago0x331971611c4aa83dea2cd13a4de1d4dd41ddc465OUT0x40a9e69e6cc8ab7f1089039e279504e440c6bf080 AVAX0.‍00470490826
0x1e0bd736ec8d6a5998b597063ca2c5473c2ccd4b60a6311cec168574c86c303cApprove66585132022-02-27 15:21:18173 days 14 hrs ago0x331971611c4aa83dea2cd13a4de1d4dd41ddc465OUT0xa3c6929f58ac9d647098979a9231b089fe451c2e0 AVAX0.‍00125720127
0x768a32a19b6ae4c75fb1d001ebf5688c71e20b9b5410992a1e7a92134012dd1f0x39a4f76466530742022-02-27 12:17:48173 days 17 hrs ago0x331971611c4aa83dea2cd13a4de1d4dd41ddc465OUT0x6d194390c1c6992383acc74027b07aeb695e02540 AVAX0.‍00680747228
0x2b9c8c68f893577140d02848dab14ea00450234d95f8700e9b2305238445d22e0x39a4f76466525572022-02-27 12:00:23173 days 17 hrs ago0x331971611c4aa83dea2cd13a4de1d4dd41ddc465OUT0x6d194390c1c6992383acc74027b07aeb695e02540 AVAX0.‍00632153626
0x8d2d8ab717d0f4a0bb6d91ed1135b26429d75e2ce6eb6ce168d89b27ca3be67c0x39a4f76466162512022-02-26 15:11:12174 days 14 hrs ago0x331971611c4aa83dea2cd13a4de1d4dd41ddc465OUT0x6d194390c1c6992383acc74027b07aeb695e02540 AVAX0.‍00656467227
0x4bed54ab766e9456df9a5ae0f8848ed99bda05b09cdcb83ef17a15811adc7675Approve66071492022-02-26 10:04:26174 days 19 hrs ago0x331971611c4aa83dea2cd13a4de1d4dd41ddc465OUT0x6eb373b066f60649e038baeceffb31ea33f612f10 AVAX0.‍00130376428
0x8308eb6e19d09db6e6e791c489f32007de9161bff58356a0150a42876ad30d71Approve66068552022-02-26 9:54:28174 days 19 hrs ago0x331971611c4aa83dea2cd13a4de1d4dd41ddc465OUT0xd58340a3921fcbd4c573afa3fdc8f392eddc42ef0 AVAX0.‍00121063826
0xf10ed042085831dec932bc4e00e7daeeba08e7ddbe86de54e11992c65a0a680aApprove66065142022-02-26 9:42:58174 days 20 hrs ago0x331971611c4aa83dea2cd13a4de1d4dd41ddc465OUT0xa3c6929f58ac9d647098979a9231b089fe451c2e0 AVAX0.‍00130376428
0xe4d81c32ed31530255f597aaf95c2ae236775bce57286b1dd948f0a86175a7570x680e6c9b66050612022-02-26 8:53:57174 days 21 hrs ago0x331971611c4aa83dea2cd13a4de1d4dd41ddc465OUT0x3dcc801b480d1dc370bbb55377cf9d401efa6f3c0 AVAX0.‍00454694828
0x280232347adf538df45456eaff0325fa8095e15ee612121efcb521c33e2ec335Approve63264882022-02-20 4:09:12181 days 1 hr ago0x331971611c4aa83dea2cd13a4de1d4dd41ddc465OUT0x5085f96fab5a4f4cd6acedf8054b431aacf298f90 AVAX0.‍001387577429.‍8
0xeb96b8131b64f9debd6169a1dc3a51695711ced3a83c9ff1c93c5da5cdf289e0Approve63255862022-02-20 3:38:55181 days 2 hrs ago0x331971611c4aa83dea2cd13a4de1d4dd41ddc465OUT0xdd30dff5f83f53789520118fc8ab15f5b2c2c8500 AVAX0.‍001368952229.‍4
0x699d5231b568c181339f8ecfaadb4ce398bb74d4827415c6b48379cd136934caApprove63246742022-02-20 3:08:27181 days 2 hrs ago0x331971611c4aa83dea2cd13a4de1d4dd41ddc465OUT0xac9518d66df4ba4570b3a0213e7df45802d5e7f30 AVAX0.‍001471390831.‍6
0xe944a11621342acc138733e583f49996fdbfe686edbf9a87232ce57a99a3d72fMint62902822022-02-19 7:42:41181 days 22 hrs ago0x331971611c4aa83dea2cd13a4de1d4dd41ddc465OUT0xfc10fbc4b3c64af67e53e615af46c21d666baab50 AVAX0.‍002628038431.‍2
0x6ff0bb429b98386d56bff614b2ce3157b8ed0b667a3853333e04e10f26651038Mint62605542022-02-18 14:57:52182 days 14 hrs ago0x331971611c4aa83dea2cd13a4de1d4dd41ddc465OUT0xfc10fbc4b3c64af67e53e615af46c21d666baab50 AVAX0.‍00107682433.‍5
0x6a1eb6ebd06d9beaed8f5ad417b96f77babe2f3a2bd21b586629c098b00cbdefMint62597952022-02-18 14:32:32182 days 15 hrs ago0x331971611c4aa83dea2cd13a4de1d4dd41ddc465OUT0x5085f96fab5a4f4cd6acedf8054b431aacf298f90 AVAX0.‍002378260831.‍7
0x6777fff9dcdd59096592b65edcedd3b8e702cfb25e945a0078c819b9f61d8499Mint62590572022-02-18 14:07:53182 days 15 hrs ago0x331971611c4aa83dea2cd13a4de1d4dd41ddc465OUT0xdd30dff5f83f53789520118fc8ab15f5b2c2c8500 AVAX0.‍00240076832
[ Download CSV Export 
Parent Txn Hash Block From To Value
Loading

Contract Name:
0

Compiler Version
0

Optimization Enabled:
0

Other Settings:
-NA-
Block Transaction Gas Used Reward
Age Block Fee Address BC Fee Address Voting Power Jailed Incoming
Block Uncle Number Difficulty Gas Used Reward
Loading